{"data":{"norad_id":53081,"intl_designator":"2022-077AQ","name":"STARLINK-4326","alt_names":[],"object_type":"PAYLOAD","status":"ACTIVE","operator":null,"country":"US","launch_date":"2022-07-11","launch_site_code":"AFWTR","launch_vehicle":null,"mission":null,"orbit_class":"UNKNOWN","rcs_meters":null,"size_class":null,"mass_kg":null,"dimensions":null,"purposes":["comms"],"wikipedia_slug":null,"has_3d_model":false,"image_url":null,"decayed_at":null,"tle_current":{"epoch":"2026-09-19T22:48:15.679008Z","epoch_age_seconds":119822,"freshness":"FRESH","line1":"1 53081U 22077AQ  26262.95018147 -.00007361  00000+0 -22565-3 0  9999","line2":"2 53081  97.2836  77.8038 0001428  98.9935 261.1469 15.33478930230215","mean_motion":15.3347893,"eccentricity":0.0001428,"inclination_deg":97.2836,"raan_deg":77.8038,"arg_perigee_deg":98.9935,"mean_anomaly_deg":261.1469,"bstar":-0.00022565,"rev_number":23021,"period_min":93.904126873135,"perigee_km":464.46496141806,"apogee_km":466.41948764458,"semimajor_km":6843.5792245313,"source":"CELESTRAK","updated_at":"2026-09-20T09:00:40.176729Z"}}}